Regional Weather Roundup
Issued by NWS Albany, NY

Current Version | Previous Version | Graphics & Text | Print | Product List | Glossary Off
Versions: 1 2 3 4 5 6 7 8 9 10 11 12 13 14 15 16 17 18 19 20 21 22 23 24 25 26 27

000
ASUS41 KALY 290110
RWRALY

NEW YORK STATE HOURLY WEATHER ROUNDUP
NATIONAL WEATHER SERVICE ALBANY NY
900 PM EDT TUE MAR 28 2017

NOTE: "FAIR" INDICATES FEW OR NO CLOUDS BELOW 12,000 FEET WITH NO
SIGNIFICANT WEATHER AND/OR NO OBSTRUCTIONS TO VISIBILITY.

NYZ032-033-038>043-046>054-057>066-NYZ062>081-082-084-290200-
EAST


CITY           SKY/WX    TMP DP  RH WIND       PRES   REMARKS
ALBANY         LGT RAIN  46  42  86 CALM      29.96R FOG
GLENS FALLS    CLOUDY    40  38  93 N5        29.98R FOG
POUGHKEEPSIE   LGT RAIN  42  42 100 CALM      29.94R FOG
NEWBURGH       LGT RAIN  43  43 100 CALM      29.94R FOG
MONTGOMERY     LGT RAIN  45  44  97 CALM      29.92R
WHITE PLAINS   LGT RAIN  43  41  93 NW6       29.92R FOG
ISLIP          LGT RAIN  40  40 100 N9        29.92R FOG     WCI  34
NEW YORK CITY  LGT RAIN  43  39  86 NE13      29.93R FOG
CENTRAL PARK   LGT RAIN  42  41  96 VRB6      29.95R
$$

NYZ005>009-017-018-044>046-055-056-290200-
CENTRAL


CITY           SKY/WX    TMP DP  RH WIND       PRES   REMARKS
FULTON         CLOUDY    41  36  82 NE13      30.08R
SYRACUSE       CLOUDY    41  39  93 N14       30.06R
ROME           CLOUDY    41  37  86 NW10      30.04R
ELMIRA         CLOUDY    43  39  86 N8        30.04R
BINGHAMTON     CLOUDY    42  42 100 N8        29.98R
MONTICELLO     CLOUDY    43  43 100 NW3       29.94R VSB 1/2
$$

NYZ026>034-041>043-087-290200-
NORTH


CITY           SKY/WX    TMP DP  RH WIND       PRES   REMARKS
WATERTOWN      CLOUDY    40  37  89 N7        30.09R
FORT DRUM      NOT AVBL
MASSENA        CLOUDY    39  35  86 NW6       30.08R WCI  35
SARANAC LAKE   CLOUDY    36  36 100 CALM      30.00R FOG
PLATTSBURGH    CLOUDY    37  35  92 CALM      30.05R FOG
$$

NYZ001>004-010>016-019>021-085-290200-
WEST


CITY           SKY/WX    TMP DP  RH WIND       PRES   REMARKS
NIAGARA FALLS  CLOUDY    45  36  70 N8        30.11R
BUFFALO        CLOUDY    44  37  76 N8        30.10R
DUNKIRK        CLOUDY    44  39  82 N5        30.11R
JAMESTOWN      CLOUDY    41  36  81 N7        30.07R
WELLSVILLE     CLOUDY    42  41  96 N8        30.04R FOG
ROCHESTER      CLOUDY    45  43  93 CALM      30.10R
PENN YAN       CLOUDY    42  38  85 N5        30.07R FOG
$$

             KEY
       WCI = WIND CHILL INDEX
       VSB = VISIBILITY
       HX  = HEAT INDEX
$$




USA.gov is the U.S. government's official web portal to all federal, state and local government web resources and services.